Tracking 30995 objects as of 5-Jul-2025
HD Live streaming from Space Station
objects crossing your sky now

STARLINK-2589

Track STARLINK-2589 now!
10-day predictions
STARLINK-2589 is classified as:


NORAD ID: 48371
Int'l Code: 2021-038U
Perigee: 553.4 km
Apogee: 555.3 km
Inclination: 53.1 °
Period: 95.6 minutes
Semi major axis: 6925 km
RCS: Unknown
Launch date: May 4, 2021
Source: United States (US)
Launch site: AIR FORCE EASTERN TEST RANGE (AFETR)
Your satellite tracking list
Your tracking list is empty




NASA's NSSDC Master Catalog

Two Line Element Set (TLE):
1 48371U 21038U   25186.55304005  .00001213  00000-0  10031-3 0  9996
2 48371  53.0557  21.0573 0001382  93.3318 266.7829 15.06404324229911
Source of the keplerian elements: AFSPC